Content
SEND FEEDBACK

Daily
Averages
Monthly
Summary
Sweden

UPPSALA, SWEDEN


Home > Europe > Sweden
Elevation: 135 feet     Latitude: 59 52N     Longitude: 017 36E

WEATHER
 
SELECT A DAY
Number of Records: 296,964;   Date Range: 7/1/96 - 7/31/14
 
SHARE

PRINT THIS DATA

[ ← Previous Day ]
WEATHER ALMANAC - JANUARY 31, 2013
[ Next Day → ]
[ °C ]   °F
Weather ElementAverageHighLow
Temperature35.6 °F37.4 °F (12:50 am)28.4 °F (11:50 pm)
Dewpoint32 °F37.4 °F (12:20 pm)24.8 °F (6:50 pm)
Humidity87.3 %100 % (7:50 am)70 % (6:50 pm)
Barometer28.97 in29.21 in (11:50 pm)28.85 in (12:50 am)
Wind Speed10.2 mph16.1 mph (12:50 am)
Weather ElementAverage
Visibility5.9 mi
Wind DirectionWSW (247 °)

Weather ElementTotal
Precipitation---
Heating Degree Days32.1 (Base 65)
Averaged from 47 records on January 31, 2013
WEATHER CONDITIONS BREAKOUT
WIND DIRECTION BREAKOUT
WEATHER BY HOUR - JANUARY 31, 2013
[ °C ]   °F
Local TimeTemperatureDewpointHumidityBarometerVisibilityWind DirectionWind SpeedGust SpeedPrecipitationEventsConditions
12:50 AM37.4 °F32.0 °F81 %28.85 in6.2 miSSW (200°)16.1 mphMostly Cloudy
1:20 AM37.4 °F33.8 °F87 %28.85 in6.2 miSSW (200°)16.1 mphMostly Cloudy
1:50 AM37.4 °F33.8 °F87 %28.85 in6.2 miSSW (200°)16.1 mphMostly Cloudy
2:20 AM37.4 °F33.8 °F87 %28.85 in6.2 miSouth (190°)16.1 mphMostly Cloudy
2:50 AM37.4 °F32.0 °F81 %28.85 in6.2 miSouth (190°)13.8 mphMostly Cloudy
3:20 AM37.4 °F33.8 °F87 %28.85 in6.2 miSouth (180°)12.7 mphLight Drizzle
3:50 AM37.4 °F33.8 °F87 %28.85 in6.2 miSouth (190°)15.0 mphLight Drizzle
4:20 AM37.4 °F33.8 °F87 %28.85 in6.2 miSouth (180°)13.8 mphLight Drizzle
4:50 AM37.4 °F33.8 °F87 %28.85 in6.2 miSouth (190°)16.1 mphLight Drizzle
5:20 AM37.4 °F33.8 °F87 %28.85 in6.2 miSouth (190°)13.8 mphDrizzle
5:50 AM37.4 °F33.8 °F87 %28.85 in6.2 miSouth (190°)11.5 mphLight Drizzle
6:20 AM37.4 °F35.6 °F93 %28.85 in6.2 miSSW (200°)11.5 mphLight Drizzle
6:50 AM37.4 °F35.6 °F93 %28.85 in6.2 miSouth (190°)10.4 mphMostly Cloudy
7:20 AM37.4 °F35.6 °F93 %28.85 in4.3 miSouth (190°)9.2 mphLight Drizzle
7:50 AM35.6 °F35.6 °F100 %28.85 in6.2 miSouth (190°)9.2 mphMostly Cloudy
8:20 AM35.6 °F35.6 °F100 %28.88 in6.2 miSouth (180°)9.2 mphMostly Cloudy
8:50 AM37.4 °F35.6 °F93 %28.88 in6.2 miSouth (180°)10.4 mphMostly Cloudy
9:20 AM35.6 °F35.6 °F100 %28.88 in6.2 miSouth (180°)8.1 mphMostly Cloudy
9:50 AM37.4 °F35.6 °F93 %28.88 in6.2 miSouth (180°)8.1 mphMostly Cloudy
10:20 AM37.4 °F35.6 °F93 %28.88 in6.2 miSouth (190°)6.9 mphMostly Cloudy
10:50 AM37.4 °F35.6 °F93 %28.91 in5.0 miSW (220°)8.1 mphLight Drizzle
11:20 AM37.4 °F35.6 °F93 %28.91 in4.3 miSW (220°)6.9 mphLight Drizzle
11:50 AM37.4 °F35.6 °F93 %28.91 in2.2 miWSW (250°)8.1 mphLight Drizzle
12:20 PM37.4 °F37.4 °F100 %28.91 in5.6 miWest (270°)8.1 mphRainLight Rain
12:50 PM37.4 °F37.4 °F100 %28.91 in6.2 miWest (270°)6.9 mphRainLight Rain
1:20 PM37.4 °F37.4 °F100 %28.94 in6.2 miWNW (290°)8.1 mphRainLight Rain
1:50 PM37.4 °F37.4 °F100 %28.94 in6.2 miNW (320°)8.1 mphMostly Cloudy
2:20 PM37.4 °F35.6 °F93 %28.97 in6.2 miNNW (330°)10.4 mphMostly Cloudy
2:50 PM37.4 °F35.6 °F93 %28.97 in6.2 miNW (320°)8.1 mphMostly Cloudy
3:20 PM37.4 °F35.6 °F93 %29.00 in6.2 miNW (310°)6.9 mphMostly Cloudy
3:50 PM37.4 °F33.8 °F87 %29.00 in6.2 miNW (310°)9.2 mphMostly Cloudy
4:20 PM37.4 °F32.0 °F81 %29.03 in6.2 miNW (310°)9.2 mphOvercast
4:50 PM35.6 °F30.2 °F81 %29.03 in6.2 miWNW (300°)11.5 mphMostly Cloudy
5:20 PM35.6 °F30.2 °F81 %29.06 in6.2 miNW (310°)11.5 mphMostly Cloudy
5:50 PM35.6 °F28.4 °F75 %29.06 in6.2 miNW (310°)11.5 mphMostly Cloudy
6:20 PM33.8 °F26.6 °F75 %29.09 in6.2 miNW (320°)11.5 mphPartly Cloudy
6:50 PM33.8 °F24.8 °F70 %29.09 inNW (320°)10.4 mphClear
7:20 PM32.0 °F24.8 °F75 %29.09 inWNW (300°)8.1 mphClear
7:50 PM32.0 °F24.8 °F75 %29.12 inWNW (300°)9.2 mphClear
8:20 PM32.0 °F24.8 °F75 %29.12 inWNW (290°)8.1 mphClear
8:50 PM30.2 °F24.8 °F80 %29.15 inWNW (290°)8.1 mphClear
9:20 PM30.2 °F24.8 °F80 %29.15 inWest (270°)6.9 mphClear
9:50 PM30.2 °F24.8 °F80 %29.15 inWNW (290°)8.1 mphClear
10:20 PM30.2 °F24.8 °F80 %29.18 inWNW (290°)8.1 mphClear
10:50 PM30.2 °F24.8 °F80 %29.18 inWest (280°)8.1 mphClear
11:20 PM30.2 °F24.8 °F80 %29.18 inWest (280°)6.9 mphClear
11:50 PM28.4 °F24.8 °F86 %29.21 inWest (260°)6.9 mphClear
Hourly data recorded from ESSA, located miles away from Uppsala, Sweden







STORIES FROM OUR PARTNERS